Etusivu
METAR-TAF:

METAR-TAF

Lentoasemat :

Burlington Municipal Airport

Burlington, Wisconsin, Yhdysvallat

Leveyspiiri: 42-41-26N, Pituuspiiri: 088-18-17W, korkeus merenpinnasta: 237 m

Tämänhetkinen sää

Tämä raportti tehtiin 25 minuuttia sitten, kello 07.15 UTC
tyyntä
Lämpötila -4°C
Kosteus 100%
Ilmanpaine 1022 hPa
Näkyvyys: 16.1 km
selkeää

METAR: KBUU 170715Z AUTO 00000KT 10SM CLR M04/M04 A3017 RMK AO2 T10361041

Aika: 01:40 (07:40 UTC)


TAF: puuttuu

Säähavainnot ja -ennusteet yli 4000 lentoasemalta (METAR- ja TAF-raportit).

Käytössä olevat sääasemat on merkitty karttaan keltaisilla ja punaisilla pisteillä.

Aseta hiiri pisteen päälle nähdäksesi sääaseman nimen.

Klikkaa sitten nähdäksesi säähavainnot ja -ennusteet.

Kartan vaihtaminen: klikkaa mustalla rastilla varustettuja vihreitä pisteitä, niin voit zoomata sisään; viivalla varustettua vihreää pistettä, niin voit zoomata ulos tai vihreitä nuolia, niin pääset viereisille kartoille.


METAR-TAF: